Location: Laas
(43.4693°N, 0.3073°E)
Time: 14:29:09
(UTC+00:00)

Cosmos 2082 - Pass Details

Date: 25 October 2020
Orbit: 832 x 857 km, 71.0° (Epoch: 24 November)

Event Time Altitude Azimuth Distance (km) Brightness Sun altitude
Rises 19:08:10 0° 336° (NNW) 3,435 7.3 -24.0°
Reaches altitude 10° 19:10:39 10° 339° (NNW) 2,497 6.4 -24.4°
Maximum altitude 19:16:23 69° 63° (ENE) 917 3.6 -25.5°
Enters shadow 19:16:36 68° 80° (E) 921 3.6 -25.5°
